[[{"header":{"parameterUnit":"m.s-1","parameterCategory":1,"la1":30.2991,"la2":30.254,"lo1":-89.0895,"lo2":-89.0444,"dy":0.0017,"dx":0.0017,"nx":28,"ny":28,"refTime":"2025-01-19T09:00:00:Z","depth":0,"parameterNumber":2,"parameterNumberName":"U-component_of_WINDS"},"data":[0,0,0,0,0,0,0,0,0,0,0,0,0,0,0,0,0,0,0,0,0,0,0,0,0,0,0,0,0,0,0,0,0,0,0,0,0,0,0,0,0,0,0,0,0,0,0,0,0,0,0,0,0,0,0,0,0,0,3.6373,3.6373,0,3.6397,3.6397,3.6397,3.6369,3.6368,3.6367,3.6366,3.6389,3.6391,3.6393,0,0,0,0,0,0,0,0,0,0,0,0,0,3.6303,3.6304,3.6372,3.6373,3.6373,3.6397,3.6397,3.6397,3.6369,3.6368,3.6366,3.6365,3.6389,3.6391,3.6393,0,0,0,0,0,0,0,0,0,0,0,0,0,3.6331,3.6305,3.6372,3.6362,3.6361,3.6397,3.6397,3.6397,3.6369,3.6368,3.6366,3.6365,3.6388,3.6391,3.6393,3.644,0,0,3.64,3.6401,0,0,0,0,0,0,0,0,3.6329,3.6333,3.6363,3.6363,3.6362,3.6378,3.6381,3.6411,3.637,3.6366,3.6366,3.6364,3.6387,3.6389,3.6397,3.6441,3.6442,3.6401,3.6402,3.6403,3.6404,0,0,0,0,0,0,0,3.6327,3.6332,3.6382,3.6364,3.6363,3.6356,3.6358,3.6387,3.6385,3.6366,3.6364,3.6368,3.6386,3.6395,3.6398,3.6442,3.6401,3.6403,3.6404,3.6405,3.6527,3.6529,0,0,0,0,0,0,3.6326,3.633,3.6381,3.6383,3.6341,3.6359,3.6361,3.6375,3.6385,3.6385,3.6369,3.6366,3.6392,3.6395,3.6398,3.6455,3.6403,3.6405,3.6407,3.6526,3.6528,3.653,0,0,0,0,0,0,3.6325,3.6331,3.638,3.6356,3.6362,3.6362,3.6377,3.6376,3.6385,3.6387,3.6386,3.6378,3.6391,3.6395,3.643,3.6455,3.6407,3.6409,3.6523,3.6526,3.6529,3.6567,0,0,0,0,0,0,3.6323,3.6331,3.6348,3.6357,3.6363,3.6411,3.6378,3.6377,3.6389,3.6386,3.6395,3.6395,3.639,3.6427,3.6433,3.6458,3.6411,3.6521,3.6525,3.6528,3.6564,3.6571,3.6577,0,0,0,0,0,3.6321,3.6357,3.6349,3.6355,3.6385,3.6413,3.6417,3.641,3.6391,3.6409,3.6411,3.6395,3.6452,3.6431,3.6437,3.6463,3.652,3.6524,3.6528,3.6561,3.657,3.6577,0,0,0,0,0,0,3.6351,3.6358,3.6349,3.639,3.6401,3.6408,3.643,3.6419,3.6435,3.6431,3.6422,3.6424,3.6462,3.6466,3.6442,3.651,3.6483,3.6488,3.6506,3.6514,3.6521,3.6519,3.6413,0,0,0,0,0,3.6362,3.6384,3.639,3.6425,3.6431,3.643,3.6442,3.6436,3.6447,3.6451,3.6455,3.6467,3.6488,3.6501,3.652,3.6565,3.6567,3.6586,3.6593,3.6598,3.6603,3.6629,3.6637,3.6543,3.6543,3.6543,0,0,3.6385,3.6393,3.6407,3.6431,3.6439,3.6463,3.6434,3.6459,3.6477,3.6455,3.6489,3.6493,3.6505,3.6546,3.6564,3.655,3.663,3.6603,3.6608,3.6609,3.6634,3.6643,3.6651,3.6546,3.6545,3.6545,0,0,3.644,3.6448,3.6479,3.6488,3.6501,3.65,3.6508,3.6518,3.652,3.6554,3.6538,3.6559,3.6594,3.6604,3.6614,3.6676,3.6663,3.6683,3.6717,3.6742,3.675,3.6756,3.6779,3.6787,3.6687,3.6687,3.6688,0,3.6468,3.6503,3.6496,3.6523,3.6535,3.6518,3.655,3.6559,3.6577,3.6586,3.6571,3.6616,3.6623,3.6667,3.6682,3.669,3.6699,3.6681,3.6749,3.6756,3.6762,3.6784,3.6792,3.669,3.669,3.6689,3.6689,0,3.6536,3.6561,3.6584,3.6604,3.6619,3.6648,3.6646,3.6662,3.6655,3.6657,3.6693,3.6701,3.6722,3.6732,3.6725,3.6775,3.6767,3.6751,3.6723,3.6773,3.6794,3.6802,3.6693,3.6692,3.6692,3.6691,0,0,3.6608,3.6626,3.6635,3.6644,3.6659,3.6678,3.6708,3.6729,3.6743,3.6757,3.6782,3.6814,3.68,3.6811,3.6806,3.6828,3.6878,3.6809,3.6809,3.6822,3.6935,3.6947,3.6957,3.687,3.6871,3.6872,3.6934,0,3.6664,3.6716,3.6712,3.676,3.6784,3.6769,3.6795,3.6807,3.681,3.683,3.6833,3.6856,3.6835,3.6842,3.6864,3.6867,3.69,3.6863,3.6893,3.6894,3.689,3.6967,3.6979,3.7037,3.6942,3.6943,3.6944,0,3.6735,3.6754,3.6805,3.6818,3.6828,3.6851,3.6872,3.6891,3.6906,3.6906,3.692,3.6912,3.6942,3.6915,3.6958,3.6932,3.6945,3.6949,3.6951,3.6953,3.6922,3.6972,3.7055,3.7064,3.6957,3.6956,3.6955,0,3.6784,3.6821,3.6857,3.6866,3.6882,3.6899,3.6906,3.6919,3.6933,3.6951,3.696,3.6981,3.6993,3.701,3.7008,3.6988,3.7052,3.7024,3.7054,3.7054,3.7067,3.7066,3.7154,3.7076,3.7075,3.7075,3.7075,0,3.6846,3.6879,3.6879,3.6901,3.6938,3.6934,3.6969,3.6975,3.6987,3.701,3.6999,3.7021,3.7017,3.704,3.7039,3.7075,3.708,3.7082,3.7081,3.7083,3.7083,3.709,3.7086,3.7078,3.7077,3.7077,3.7076,0,3.6906,3.6908,3.6946,3.6959,3.6963,3.699,3.7001,3.7022,3.7025,3.7055,3.7062,3.7066,3.7092,3.7092,3.7122,3.7121,3.7166,3.716,3.7161,3.716,3.719,3.7187,3.7285,3.7298,3.7211,3.7212,3.7213,0,3.6946,3.697,3.6987,3.7002,3.7011,3.7035,3.705,3.7048,3.7064,3.7083,3.7103,3.7128,3.7148,3.7191,3.7197,3.722,3.7215,3.7248,3.7218,3.722,3.7216,3.7215,3.7217,3.7253,3.7254,3.7255,3.7256,0,3.7016,3.7017,3.7038,3.7061,3.708,3.7097,3.7114,3.7127,3.7127,3.7145,3.7173,3.7189,3.722,3.7246,3.7269,3.7276,3.7267,3.7265,3.7274,3.7275,3.7275,3.7276,3.7177,3.7263,3.7262,3.7262,3.7261,3.7261,3.7067,3.7089,3.7105,3.713,3.7143,3.7159,3.718,3.7187,3.7209,3.7235,3.7233,3.7263,3.7279,3.7309,3.7319,3.7343,3.7332,3.7343,3.7346,3.7349,3.7353,3.7272,3.7347,3.7347,3.7347,3.7347,3.7347,0,3.7138,3.7148,3.7171,3.7195,3.7216,3.7206,3.7224,3.7242,3.7269,3.7285,3.7305,3.7338,3.7363,3.7372,3.7397,3.7415,3.7411,3.7422,3.742,3.7422,3.7361,3.7352,3.7424,3.7424,3.7424,3.7424,3.7424,3.7424,3.7177,3.7214,3.7216,3.726,3.727,3.73,3.7312,3.7327,3.734,3.7377,3.7398,3.7404,3.7418,3.7444,3.7467,3.7469,3.7479,3.7492,3.7492,3.7434,3.7426,3.7419,3.741,3.7494,3.7494,3.7551,3.7552,3.7552]},{"header":{"parameterUnit":"m.s-1","parameterCategory":1,"la1":30.2991,"la2":30.254,"lo1":-89.0895,"lo2":-89.0444,"dy":0.0017,"dx":0.0017,"nx":28,"ny":28,"refTime":"2025-01-19T09:00:00:Z","depth":0,"parameterNumber":3,"parameterNumberName":"V-component_of_WINDS"},"data":[0,0,0,0,0,0,0,0,0,0,0,0,0,0,0,0,0,0,0,0,0,0,0,0,0,0,0,0,0,0,0,0,0,0,0,0,0,0,0,0,0,0,0,0,0,0,0,0,0,0,0,0,0,0,0,0,0,0,-8.3661,-8.3662,0,-8.3806,-8.3808,-8.3809,-8.3779,-8.3777,-8.3774,-8.3771,-8.3914,-8.392,-8.3927,0,0,0,0,0,0,0,0,0,0,0,0,0,-8.3354,-8.3359,-8.3661,-8.3663,-8.3664,-8.3806,-8.3808,-8.381,-8.378,-8.3776,-8.3773,-8.377,-8.3912,-8.392,-8.3927,0,0,0,0,0,0,0,0,0,0,0,0,0,-8.3492,-8.3361,-8.366,-8.3667,-8.3669,-8.3806,-8.3808,-8.381,-8.378,-8.3776,-8.3772,-8.3769,-8.391,-8.3919,-8.3928,-8.4066,0,0,-8.3957,-8.3961,0,0,0,0,0,0,0,0,-8.3484,-8.3503,-8.3664,-8.3666,-8.3669,-8.3771,-8.3752,-8.3896,-8.3781,-8.3738,-8.3771,-8.3767,-8.3869,-8.3882,-8.3918,-8.4073,-8.4079,-8.3958,-8.3964,-8.3968,-8.397,0,0,0,0,0,0,0,-8.3474,-8.3496,-8.3718,-8.3666,-8.3669,-8.3661,-8.3676,-8.3779,-8.3824,-8.3741,-8.3739,-8.3757,-8.387,-8.3909,-8.3921,-8.4081,-8.3958,-8.3966,-8.3972,-8.3975,-8.436,-8.4365,0,0,0,0,0,0,-8.3463,-8.3489,-8.3713,-8.3722,-8.3565,-8.367,-8.3687,-8.3742,-8.3823,-8.3831,-8.3761,-8.3755,-8.3894,-8.391,-8.3926,-8.4095,-8.3968,-8.3976,-8.3982,-8.4356,-8.4361,-8.4366,0,0,0,0,0,0,-8.3457,-8.3484,-8.3708,-8.3605,-8.3633,-8.3679,-8.3741,-8.3747,-8.3786,-8.3838,-8.3845,-8.3792,-8.3892,-8.3912,-8.4033,-8.4099,-8.3981,-8.3989,-8.435,-8.4357,-8.4364,-8.4433,0,0,0,0,0,0,-8.3448,-8.3481,-8.3535,-8.3607,-8.3639,-8.3814,-8.3746,-8.3753,-8.3803,-8.3797,-8.3869,-8.3877,-8.389,-8.4019,-8.4042,-8.411,-8.3997,-8.4345,-8.4353,-8.4362,-8.4425,-8.4442,-8.4456,0,0,0,0,0,-8.3437,-8.3547,-8.3538,-8.3565,-8.3707,-8.3817,-8.3836,-8.385,-8.3808,-8.3862,-8.3896,-8.3875,-8.4088,-8.4031,-8.4057,-8.4129,-8.434,-8.4351,-8.4361,-8.4418,-8.4438,-8.4455,0,0,0,0,0,0,-8.3479,-8.3556,-8.3547,-8.3683,-8.3745,-8.3812,-8.3881,-8.387,-8.3943,-8.3935,-8.3948,-8.3964,-8.4088,-8.412,-8.4055,-8.4269,-8.4208,-8.4224,-8.4243,-8.4263,-8.4277,-8.4267,-8.4004,0,0,0,0,0,-8.3504,-8.3589,-8.3651,-8.3765,-8.3797,-8.3834,-8.3882,-8.3889,-8.3952,-8.3977,-8.4019,-8.4079,-8.416,-8.4213,-8.429,-8.443,-8.4446,-8.4492,-8.4507,-8.452,-8.4533,-8.4612,-8.4634,-8.44,-8.44,-8.44,0,0,-8.3556,-8.3609,-8.3661,-8.3775,-8.3823,-8.391,-8.3855,-8.3949,-8.4013,-8.399,-8.4108,-8.4141,-8.4209,-8.4341,-8.4401,-8.4372,-8.4602,-8.4533,-8.4542,-8.4549,-8.4625,-8.4647,-8.4667,-8.4407,-8.4406,-8.4405,0,0,-8.3697,-8.3745,-8.3847,-8.3898,-8.3972,-8.3997,-8.4021,-8.4092,-8.4114,-8.4233,-8.4218,-8.4294,-8.4432,-8.4483,-8.4526,-8.469,-8.4674,-8.4714,-8.4794,-8.487,-8.4889,-8.4905,-8.4965,-8.4986,-8.4728,-8.4728,-8.4728,0,-8.3753,-8.3884,-8.39,-8.3997,-8.4048,-8.4034,-8.4138,-8.4185,-8.428,-8.4315,-8.4282,-8.4458,-8.4502,-8.4647,-8.4687,-8.4722,-8.4751,-8.4706,-8.4885,-8.4902,-8.4917,-8.4975,-8.4997,-8.4732,-8.4732,-8.4731,-8.4731,0,-8.395,-8.4042,-8.4115,-8.4211,-8.427,-8.4369,-8.44,-8.4457,-8.4459,-8.4487,-8.4609,-8.4663,-8.4752,-8.4786,-8.4787,-8.4932,-8.4912,-8.4882,-8.4821,-8.4944,-8.4998,-8.502,-8.4739,-8.4737,-8.4736,-8.4735,0,0,-8.4119,-8.4225,-8.4252,-8.4297,-8.4379,-8.445,-8.4549,-8.4639,-8.4689,-8.4755,-8.4839,-8.4958,-8.4932,-8.4982,-8.4989,-8.5056,-8.5185,-8.5018,-8.502,-8.5049,-8.5349,-8.5372,-8.5397,-8.5175,-8.5179,-8.5182,-8.5344,0,-8.4268,-8.4446,-8.4464,-8.4622,-8.4708,-8.4697,-8.4784,-8.4844,-8.4873,-8.4949,-8.498,-8.5066,-8.5024,-8.5054,-8.512,-8.5155,-8.5245,-8.5144,-8.5252,-8.5256,-8.5237,-8.5425,-8.5449,-8.5599,-8.5365,-8.5368,-8.5371,0,-8.4466,-8.4542,-8.471,-8.4784,-8.482,-8.4898,-8.4983,-8.5056,-8.5124,-8.5141,-8.5198,-8.5198,-8.5299,-8.5235,-8.5376,-8.5307,-8.5352,-8.5377,-8.5383,-8.5394,-8.5321,-8.5442,-8.5647,-8.567,-8.5404,-8.5402,-8.5399,0,-8.4575,-8.4719,-8.4838,-8.4876,-8.4965,-8.502,-8.506,-8.5124,-8.5178,-8.5252,-8.5287,-8.5371,-8.5417,-8.5482,-8.5503,-8.5454,-8.5644,-8.5581,-8.5661,-8.566,-8.5701,-8.5698,-8.5917,-8.5729,-8.5729,-8.5728,-8.5728,0,-8.474,-8.4843,-8.4889,-8.4963,-8.5078,-8.5099,-8.5212,-8.5248,-8.5307,-8.5387,-8.5381,-8.5456,-8.548,-8.5559,-8.5577,-8.5692,-8.5712,-8.5728,-8.5732,-8.5729,-8.5728,-8.576,-8.575,-8.5734,-8.5733,-8.5732,-8.5731,0,-8.4881,-8.4916,-8.5046,-8.5121,-8.5142,-8.5224,-8.5288,-8.5358,-8.5388,-8.5489,-8.5514,-8.5559,-8.5652,-8.5681,-8.5792,-8.5803,-8.5939,-8.5932,-8.5917,-8.5918,-8.5996,-8.5989,-8.6244,-8.6279,-8.6067,-8.6069,-8.607,0,-8.4985,-8.5065,-8.5149,-8.5204,-8.5247,-8.5334,-8.539,-8.5414,-8.5472,-8.5558,-8.5618,-8.5711,-8.5787,-8.5936,-8.5978,-8.6063,-8.6059,-8.6143,-8.6072,-8.6068,-8.6063,-8.6058,-8.6067,-8.6156,-8.6158,-8.616,-8.6162,0,-8.5166,-8.518,-8.5262,-8.5352,-8.542,-8.549,-8.5558,-8.5603,-8.5636,-8.5702,-8.5799,-8.5858,-8.5974,-8.6066,-8.6154,-8.6193,-8.6184,-8.6184,-8.6207,-8.6206,-8.6195,-8.6204,-8.5955,-8.6178,-8.6176,-8.6175,-8.6174,-8.6174,-8.5293,-8.5364,-8.5436,-8.5529,-8.5583,-8.5648,-8.5719,-8.5759,-8.5841,-8.5939,-8.5947,-8.6052,-8.612,-8.6237,-8.6281,-8.6363,-8.6339,-8.6372,-8.638,-8.6388,-8.6396,-8.6181,-8.6379,-8.6378,-8.6378,-8.6377,-8.6377,0,-8.5475,-8.5522,-8.5607,-8.5704,-8.5777,-8.5765,-8.584,-8.5902,-8.5995,-8.606,-8.6136,-8.6248,-8.6339,-8.6389,-8.6479,-8.6535,-8.6534,-8.6558,-8.6555,-8.6564,-8.6411,-8.6383,-8.6559,-8.6559,-8.6559,-8.6559,-8.6558,-8.6558,-8.5578,-8.57,-8.5723,-8.5872,-8.5917,-8.6023,-8.6067,-8.6127,-8.6179,-8.6306,-8.6383,-8.6416,-8.6475,-8.657,-8.6653,-8.6665,-8.6699,-8.6727,-8.6737,-8.6593,-8.6575,-8.6557,-8.6531,-8.6734,-8.6734,-8.6883,-8.6885,-8.6886]}]]